Location: Fort Wayne
(41.1310°N, 85.1290°W)
Time: 01:45:35
(UTC-04:00)

OPAL - Visible Passes

Search period start: 01 August 2014 00:00
Search period end: 11 August 2014 00:00
Orbit: 744 x 797 km, 100.2° (Epoch: 31 July)

Date Brightness Start Highest point End Pass type
(mag) Time Alt. Az. Time Alt. Az. Time Alt. Az.
01 Aug 10.3 03:19:37 10° E 03:21:46 13° ENE 03:23:54 10° NNE visible
01 Aug 7.4 04:55:00 10° SSE 04:59:57 83° WSW 05:04:56 10° NNW visible
02 Aug 8.5 04:20:10 10° SE 04:24:50 45° ENE 04:29:34 10° N visible
02 Aug 8.7 06:00:17 10° SW 06:03:56 21° W 06:07:36 10° NW visible
03 Aug 9.8 03:46:12 10° ESE 03:49:55 22° ENE 03:53:40 10° NNE visible
03 Aug 7.7 05:23:47 10° S 05:28:30 45° WSW 05:33:16 10° NNW visible
04 Aug 10.5 03:14:13 10° ENE 03:15:12 11° NE 03:16:10 10° NE visible
04 Aug 7.5 04:48:19 10° SSE 04:53:15 81° ENE 04:58:14 10° NNW visible
05 Aug 8.9 04:13:40 10° SE 04:18:11 37° ENE 04:22:45 10° N visible
05 Aug 8.5 05:53:07 10° SSW 05:57:09 25° W 06:01:13 10° NW visible
06 Aug 10.0 03:39:59 10° ESE 03:43:19 18° ENE 03:46:40 10° NNE visible
06 Aug 7.5 05:16:55 10° S 05:21:45 56° WSW 05:26:40 10° NNW visible
07 Aug 7.8 04:41:40 10° SSE 04:46:33 67° ENE 04:51:31 10° N visible
08 Aug 9.2 04:07:14 10° SE 04:11:32 31° ENE 04:15:54 10° N visible
08 Aug 8.2 05:46:02 10° SSW 05:50:22 30° W 05:54:46 10° NW visible
09 Aug 10.2 03:33:53 10° E 03:36:43 15° ENE 03:39:34 10° NNE visible
09 Aug 7.4 05:10:07 10° S 05:15:02 69° WSW 05:20:01 10° NNW visible
10 Aug 8.1 04:35:04 10° SE 04:39:52 55° ENE 04:44:45 10° N visible
